period_start,C,m1,H,J0,J1,J2,J3,J4,J5,JA,JB,JC,JD,JJ,JK,JN,#
2014-01-20 00:00:57,0.39,2.30,0.00,16.83,22.94,26.33,6.30,30.75,1028.07,2054.99,2721.24,2711.15,2946.18,350.46,334.60,8.02,0000 0000 0000 0000 000000
2014-01-20 00:01:58,0.19,2.30,0.00,16.83,22.94,26.38,6.07,30.67,1028.04,2054.99,2720.60,2710.71,2945.76,349.49,334.66,8.03,0000 0000 0000 0000 000000
2014-01-20 00:02:58,0.37,2.30,0.00,16.82,22.94,26.38,6.39,30.79,1028.10,2054.99,2720.12,2710.26,2945.29,350.57,335.38,8.04,0000 0000 0000 0000 000000
2014-01-20 00:03:58,0.26,2.30,0.00,16.82,22.94,26.37,6.43,30.67,1028.13,2054.99,2719.48,2709.97,2944.97,350.15,334.68,8.04,0000 0000 0000 0000 000000
2014-01-20 00:04:58,0.24,2.30,0.00,16.83,22.94,26.39,6.06,30.42,1028.15,2054.99,2719.06,2709.43,2944.42,349.13,334.56,8.05,0000 0000 0000 0000 000000
2014-01-20 00:05:58,0.35,2.30,0.00,16.82,22.94,26.36,6.15,30.58,1028.23,2054.99,2718.45,2709.12,2944.15,349.92,335.05,8.05,0000 0000 0000 0000 000000
2014-01-20 00:06:59,0.22,2.31,0.00,16.82,22.94,26.36,6.38,30.75,1028.17,2054.99,2718.02,2708.65,2943.77,351.03,335.62,8.06,0000 0000 0000 0000 000000
2014-01-20 00:07:59,0.29,2.31,0.00,16.82,22.94,26.35,6.15,30.67,1028.17,2054.99,2717.44,2708.26,2943.29,348.80,333.49,8.06,0000 0000 0000 0000 000000
2014-01-20 00:08:59,0.28,2.31,0.00,16.83,22.93,26.36,6.41,30.79,1028.24,2054.99,2716.95,2707.99,2942.94,350.81,335.41,8.07,0000 0000 0000 0000 000000
2014-01-20 00:09:59,0.21,2.31,0.00,16.82,22.93,26.34,6.38,30.83,1028.28,2054.99,2716.38,2707.46,2942.40,349.71,334.39,8.08,0000 0000 0000 0000 000000
2014-01-20 00:11:00,0.37,2.31,0.00,16.82,22.92,26.38,6.37,30.58,1028.26,2054.99,2715.89,2707.16,2942.11,351.11,335.72,8.08,0000 0000 0000 0000 000000
2014-01-20 00:12:00,0.20,2.31,0.00,16.82,22.92,26.36,6.34,30.54,1028.25,2054.99,2715.34,2706.80,2941.58,350.59,335.22,8.09,0000 0000 0000 0000 000000
2014-01-20 00:13:00,0.31,2.32,0.00,16.82,22.92,26.36,6.27,30.46,1028.30,2054.99,2714.80,2706.33,2941.21,350.15,334.82,8.09,0000 0000 0000 0000 000000
2014-01-20 00:14:00,0.29,2.32,0.00,16.84,22.92,26.37,6.36,30.63,1028.30,2054.99,2714.29,2706.09,2940.88,350.15,334.96,8.10,0000 0000 0000 0000 000000
2014-01-20 00:15:01,0.20,2.32,0.00,16.83,22.92,26.38,6.12,30.29,1028.28,2055.00,2713.88,2705.61,2940.36,349.44,334.11,8.11,0000 0000 0000 0000 000000
2014-01-20 00:16:01,0.33,2.32,0.00,16.84,22.92,26.39,6.17,30.71,1028.29,2055.00,2713.34,2705.22,2940.05,350.01,334.72,8.11,0000 0000 0000 0000 000000
2014-01-20 00:17:01,0.24,2.32,0.00,16.84,22.92,26.38,6.11,30.75,1028.30,2055.00,2712.90,2704.86,2939.50,349.56,334.26,8.12,0000 0000 0000 0000 000000
2014-01-20 00:18:01,0.30,2.32,0.00,16.84,22.92,26.38,6.19,30.50,1028.28,2055.00,2712.34,2704.35,2939.14,350.03,334.81,8.12,0000 0000 0000 0000 000000
2014-01-20 00:19:01,0.29,2.33,0.00,16.84,22.92,26.34,6.18,30.67,1028.29,2055.00,2712.01,2704.12,2938.61,350.38,335.40,8.13,0000 0000 0000 0000 000000
2014-01-20 00:20:02,0.21,2.33,0.00,16.84,22.92,26.36,6.38,30.54,1028.28,2055.00,2711.43,2703.69,2938.21,350.78,335.39,8.13,0000 0000 0000 0000 000000
2014-01-20 00:21:02,0.31,2.33,0.00,16.83,22.92,26.35,6.14,30.50,1028.29,2055.00,2710.90,2703.25,2937.68,349.88,334.54,8.14,0000 0000 0000 0000 000000
2014-01-20 00:22:02,0.31,2.33,0.00,16.82,22.92,26.34,6.40,30.46,1028.27,2055.00,2710.35,2702.98,2937.24,350.33,335.26,8.15,0000 0000 0000 0000 000000
2014-01-20 00:23:03,0.24,2.33,0.00,16.84,22.92,26.37,6.40,30.63,1028.28,2055.00,2709.85,2702.45,2936.94,350.04,334.61,8.15,0000 0000 0000 0000 000000
2014-01-20 00:24:03,0.30,2.33,0.00,16.84,22.92,26.39,6.26,30.50,1028.32,2055.00,2709.31,2702.15,2936.41,350.95,335.49,8.16,0000 0000 0000 0000 000000
2014-01-20 00:25:03,0.26,2.34,0.00,16.83,22.91,26.40,6.17,30.42,1028.29,2055.01,2708.88,2701.74,2936.14,349.94,334.64,8.16,0000 0000 0000 0000 000000
2014-01-20 00:26:03,0.25,2.34,0.00,16.84,22.91,26.38,6.04,30.46,1028.28,2055.01,2708.34,2701.28,2935.64,350.26,334.89,8.17,0000 0000 0000 0000 000000
2014-01-20 00:27:04,0.33,2.34,0.00,16.84,22.91,26.33,6.28,30.63,1028.29,2055.00,2707.76,2700.97,2935.22,349.64,334.30,8.18,0000 0000 0000 0000 000000
2014-01-20 00:28:04,0.22,2.34,0.00,16.84,22.90,26.33,6.37,30.88,1028.28,2055.00,2707.27,2700.43,2934.74,350.44,335.07,8.18,0000 0000 0000 0000 000000
2014-01-20 00:29:04,0.33,2.34,0.00,16.84,22.90,26.33,6.27,30.58,1028.28,2055.00,2706.68,2700.15,2934.27,350.04,334.67,8.19,0000 0000 0000 0000 000000
2014-01-20 00:30:04,0.26,2.34,0.00,16.83,22.90,26.33,6.23,30.58,1028.24,2055.00,2706.23,2699.78,2933.91,350.38,335.00,8.19,0000 0000 0000 0000 000000
2014-01-20 00:31:04,0.26,2.34,0.00,16.82,22.90,26.35,6.29,30.63,1028.22,2055.00,2705.63,2699.31,2933.38,349.57,334.23,8.20,0000 0000 0000 0000 000000
2014-01-20 00:32:05,0.33,2.35,0.00,16.82,22.90,26.37,6.17,30.33,1028.21,2055.00,2705.20,2699.08,2933.12,349.51,334.17,8.20,0000 0000 0000 0000 000000
2014-01-20 00:33:05,0.20,2.35,0.00,16.80,22.90,26.36,6.41,30.71,1028.17,2055.00,2704.61,2698.54,2932.65,350.75,335.37,8.21,0000 0000 0000 0000 000000
2014-01-20 00:34:05,0.35,2.35,0.00,16.79,22.90,26.38,6.29,30.83,1028.22,2055.00,2704.14,2698.19,2932.24,350.06,334.52,8.22,0000 0000 0000 0000 000000
2014-01-20 00:35:05,0.24,2.35,0.00,16.80,22.90,26.37,6.16,30.96,1028.24,2055.00,2703.52,2697.82,2931.90,350.18,335.31,8.22,0000 0000 0000 0000 000000
2014-01-20 00:36:06,0.29,2.35,0.00,16.79,22.89,26.38,6.40,30.79,1028.25,2055.00,2703.03,2697.32,2931.36,351.07,335.71,8.23,0000 0000 0000 0000 000000
2014-01-20 00:37:06,0.29,2.36,0.00,16.79,22.89,26.38,6.28,31.17,1028.28,2055.00,2702.42,2697.07,2931.07,350.55,335.22,8.23,0000 0000 0000 0000 000000
2014-01-20 00:38:06,0.24,2.36,0.00,16.80,22.89,26.38,6.39,31.00,1028.32,2055.00,2701.99,2696.54,2930.52,350.75,335.42,8.24,0000 0000 0000 0000 000000
2014-01-20 00:39:06,0.34,2.36,0.00,16.81,22.89,26.34,6.23,31.08,1028.32,2055.00,2701.41,2696.19,2930.18,349.59,334.77,8.25,0000 0000 0000 0000 000000
2014-01-20 00:40:06,0.27,2.36,0.00,16.82,22.89,26.34,6.28,31.04,1028.31,2055.02,2700.97,2695.86,2929.72,350.42,334.96,8.25,0000 0000 0000 0000 000000
2014-01-20 00:41:07,0.27,2.36,0.00,16.82,22.89,26.36,6.21,30.96,1028.27,2055.01,2700.38,2695.35,2929.27,349.66,334.32,8.26,0000 0000 0000 0000 000000
2014-01-20 00:42:07,0.32,2.36,0.00,16.82,22.89,26.37,6.19,30.83,1028.25,2055.00,2699.82,2695.08,2929.00,349.02,333.67,8.26,0000 0000 0000 0000 000000
2014-01-20 00:43:07,0.23,2.36,0.00,16.82,22.89,26.37,6.40,31.21,1028.30,2055.00,2699.30,2694.54,2928.45,351.38,336.00,8.27,0000 0000 0000 0000 000000
2014-01-20 00:44:07,0.35,2.37,0.00,16.81,22.89,26.39,6.23,30.58,1028.29,2055.00,2698.78,2694.19,2928.16,350.12,334.80,8.27,0000 0000 0000 0000 000000
2014-01-20 00:45:08,0.23,2.37,0.00,16.81,22.89,26.40,6.28,31.13,1028.26,2055.00,2698.27,2693.92,2927.82,349.67,334.64,8.28,0000 0000 0000 0000 000000
2014-01-20 00:46:08,0.22,2.37,0.00,16.82,22.89,26.39,6.27,31.29,1028.23,2055.01,2697.65,2693.39,2927.33,349.84,334.40,8.29,0000 0000 0000 0000 000000
2014-01-20 00:47:08,0.36,2.37,0.00,16.80,22.89,26.38,6.25,31.21,1028.25,2055.01,2697.14,2693.05,2926.98,350.40,334.76,8.29,0000 0000 0000 0000 000000
2014-01-20 00:48:08,0.24,2.37,0.00,16.79,22.88,26.36,6.35,31.21,1028.29,2055.01,2696.50,2692.47,2926.39,350.54,335.07,8.30,0000 0000 0000 0000 000000
2014-01-20 00:49:08,0.40,2.38,0.00,16.78,22.88,26.34,6.10,31.25,1028.24,2055.02,2696.17,2692.17,2926.11,349.26,333.33,8.30,0000 0000 0000 0000 000000
2014-01-20 00:50:08,0.19,2.38,0.00,16.78,22.87,26.37,6.42,30.96,1028.16,2055.02,2695.60,2691.91,2925.56,350.33,334.89,8.31,0000 0000 0000 0000 000000
2014-01-20 00:51:09,0.28,2.38,0.00,16.77,22.87,26.37,6.13,30.83,1028.09,2055.01,2695.17,2691.39,2925.18,349.95,334.61,8.32,0000 0000 0000 0000 000000
2014-01-20 00:52:09,0.29,2.38,0.00,16.77,22.87,26.36,6.25,31.00,1028.08,2055.00,2694.55,2691.12,2924.73,349.65,334.33,8.32,0000 0000 0000 0000 000000
2014-01-20 00:53:09,0.27,2.38,0.00,16.77,22.87,26.36,6.08,31.08,1028.08,2055.01,2694.15,2690.70,2924.27,349.33,334.01,8.33,0000 0000 0000 0000 000000
2014-01-20 00:54:10,0.27,2.38,0.00,16.77,22.87,26.38,6.37,30.96,1028.09,2055.01,2693.54,2690.26,2923.84,350.84,335.47,8.33,0000 0000 0000 0000 000000
2014-01-20 00:55:10,0.30,2.39,0.00,16.77,22.87,26.38,6.33,31.00,1028.02,2055.00,2693.08,2689.96,2923.32,350.28,334.91,8.34,0000 0000 0000 0000 000000
2014-01-20 00:56:10,0.25,2.39,0.00,16.77,22.87,26.37,6.21,31.00,1027.96,2055.02,2692.46,2689.44,2923.04,350.28,334.89,8.35,0000 0000 0000 0000 000000
2014-01-20 00:57:10,0.34,2.39,0.00,16.77,22.87,26.33,6.22,30.88,1027.94,2055.01,2692.05,2689.15,2922.49,349.91,334.44,8.35,0000 0000 0000 0000 000000
2014-01-20 00:58:10,0.24,2.39,0.00,16.78,22.87,26.35,6.40,31.08,1027.95,2055.00,2691.45,2688.74,2922.17,350.50,335.08,8.36,0000 0000 0000 0000 000000
2014-01-20 00:59:11,0.28,2.39,0.00,16.79,22.87,26.39,6.26,30.96,1027.98,2055.01,2691.01,2688.28,2921.74,349.56,334.18,8.36,0000 0000 0000 0000 000000
2014-01-20 01:00:11,0.28,2.39,0.00,16.79,22.87,26.38,6.16,31.04,1027.96,2055.01,2690.40,2687.97,2921.28,349.53,334.14,8.37,0000 0000 0000 0000 000000
2014-01-20 01:01:11,0.29,2.40,0.00,16.79,22.87,26.36,6.26,30.96,1027.94,2055.00,2689.90,2687.47,2920.91,350.02,334.93,8.37,0000 0000 0000 0000 000000
2014-01-20 01:02:11,0.29,2.40,0.00,16.78,22.87,26.35,6.13,30.83,1027.94,2055.00,2689.34,2687.17,2920.38,349.89,334.80,8.38,0000 0000 0000 0000 000000
2014-01-20 01:03:12,0.29,2.40,0.00,16.77,22.87,26.33,6.24,31.17,1027.90,2055.02,2688.76,2686.78,2920.08,350.47,335.05,8.39,0000 0000 0000 0000 000000
2014-01-20 01:04:12,0.27,2.40,0.00,16.77,22.87,26.31,6.33,31.17,1027.89,2055.02,2688.27,2686.30,2919.53,349.91,334.51,8.39,0000 0000 0000 0000 000000
2014-01-20 01:05:12,0.34,2.40,0.00,16.77,22.87,26.33,6.26,30.96,1027.89,2055.03,2687.75,2686.05,2919.17,350.53,335.10,8.40,0000 0000 0000 0000 000000
2014-01-20 01:06:13,0.24,2.40,0.00,16.77,22.87,26.32,6.38,31.04,1027.86,2055.03,2687.27,2685.59,2918.70,349.84,334.44,8.40,0000 0000 0000 0000 000000
2014-01-20 01:07:13,0.28,2.41,0.00,16.75,22.87,26.33,6.31,31.17,1027.85,2055.04,2686.95,2685.23,2918.26,349.86,334.19,8.41,0000 0000 0000 0000 000000
2014-01-20 01:08:13,0.24,2.41,0.00,16.74,22.86,26.31,6.16,31.00,1027.87,2055.03,2686.40,2685.00,2917.95,349.61,334.25,8.42,0000 0000 0000 0000 000000
2014-01-20 01:09:13,0.23,2.41,0.00,16.74,22.86,26.29,6.34,31.13,1027.87,2055.07,2685.97,2684.48,2917.41,348.76,333.54,8.42,0000 0000 0000 0000 000000
2014-01-20 01:10:14,0.34,2.41,0.00,16.75,22.86,26.32,6.40,30.92,1027.88,2055.04,2685.39,2684.16,2917.04,350.17,334.79,8.43,0000 0000 0000 0000 000000
2014-01-20 01:11:14,0.25,2.41,0.00,16.75,22.85,26.35,6.09,30.96,1027.86,2055.05,2684.88,2683.73,2916.48,349.81,334.43,8.43,0000 0000 0000 0000 000000
2014-01-20 01:12:14,0.32,2.41,0.00,16.74,22.85,26.32,6.20,30.88,1027.85,2055.05,2684.33,2683.29,2916.17,350.64,335.23,8.44,0000 0000 0000 0000 000000
2014-01-20 01:13:15,0.29,2.42,0.00,16.74,22.85,26.30,6.25,30.83,1027.85,2055.03,2683.81,2682.95,2915.74,349.56,334.20,8.44,0000 0000 0000 0000 000000
2014-01-20 01:14:15,0.25,2.42,0.00,16.74,22.85,26.32,6.29,31.00,1027.85,2055.04,2683.28,2682.41,2915.28,349.30,333.95,8.45,0000 0000 0000 0000 000000
2014-01-20 01:15:15,0.33,2.42,0.00,16.74,22.85,26.31,6.22,31.00,1027.85,2055.03,2682.66,2682.13,2914.99,349.90,334.36,8.46,0000 0000 0000 0000 000000
2014-01-20 01:16:15,0.24,2.42,0.00,16.75,22.85,26.32,6.18,31.00,1027.87,2055.04,2682.24,2681.76,2914.43,350.11,334.72,8.46,0000 0000 0000 0000 000000
2014-01-20 01:17:16,0.27,2.42,0.00,16.75,22.85,26.35,6.27,30.79,1027.85,2055.06,2681.76,2681.29,2914.15,350.60,335.18,8.47,0000 0000 0000 0000 000000
2014-01-20 01:18:16,0.31,2.42,0.00,16.76,22.85,26.33,6.43,30.67,1027.85,2055.10,2681.28,2681.04,2913.71,350.46,335.15,8.47,0000 0000 0000 0000 000000
2014-01-20 01:19:16,0.27,2.43,0.00,16.75,22.84,26.33,6.36,31.00,1027.85,2055.07,2680.88,2680.57,2913.25,350.18,334.33,8.48,0000 0000 0000 0000 000000
2014-01-20 01:20:17,0.26,2.43,0.00,16.74,22.84,26.33,6.22,30.75,1027.86,2055.08,2680.33,2680.20,2912.89,349.08,333.39,8.49,0000 0000 0000 0000 000000
2014-01-20 01:21:17,0.26,2.43,0.00,16.74,22.84,26.34,6.24,30.79,1027.85,2055.07,2679.90,2679.97,2912.35,349.63,334.26,8.49,0000 0000 0000 0000 000000
2014-01-20 01:22:17,0.25,2.43,0.00,16.74,22.84,26.33,6.33,30.79,1027.85,2055.10,2679.34,2679.46,2912.11,349.89,334.51,8.50,0000 0000 0000 0000 000000
2014-01-20 01:23:17,0.32,2.43,0.00,16.74,22.84,26.30,6.31,30.79,1027.86,2055.09,2678.76,2679.15,2911.58,350.32,335.15,8.50,0000 0000 0000 0000 000000
2014-01-20 01:24:18,0.29,2.43,0.00,16.75,22.84,26.30,6.42,30.83,1027.86,2055.11,2678.28,2678.80,2911.18,350.32,335.11,8.51,0000 0000 0000 0000 000000
2014-01-20 01:25:18,0.29,2.43,0.00,16.76,22.84,26.32,6.35,30.67,1027.85,2055.10,2677.80,2678.30,2910.67,349.91,334.78,8.51,0000 0000 0000 0000 000000
2014-01-20 01:26:18,0.28,2.44,0.00,16.75,22.84,26.34,6.28,30.83,1027.86,2055.09,2677.29,2677.99,2910.23,350.57,333.89,8.52,0000 0000 0000 0000 000000
2014-01-20 01:27:19,0.27,2.44,0.00,16.75,22.84,26.32,6.22,30.71,1027.85,2055.05,2676.75,2677.44,2909.84,349.72,334.35,8.53,0000 0000 0000 0000 000000
2014-01-20 01:28:19,0.26,2.44,0.00,16.74,22.84,26.28,6.13,30.54,1027.85,2055.06,2676.27,2677.15,2909.34,349.36,334.35,8.53,0000 0000 0000 0000 000000
2014-01-20 01:29:19,0.30,2.44,0.00,16.74,22.84,26.29,6.27,30.67,1027.85,2055.06,2675.64,2676.69,2909.04,350.84,335.43,8.54,0000 0000 0000 0000 000000
2014-01-20 01:30:20,0.28,2.44,0.00,16.74,22.84,26.32,6.20,30.63,1027.85,2055.03,2675.17,2676.26,2908.48,350.46,335.06,8.54,0000 0000 0000 0000 000000
2014-01-20 01:31:20,0.28,2.44,0.00,16.74,22.84,26.32,6.17,30.42,1027.85,2055.04,2674.56,2676.02,2908.17,349.61,334.24,8.55,0000 0000 0000 0000 000000
2014-01-20 01:32:20,0.25,2.45,0.00,16.74,22.84,26.32,6.18,30.71,1027.85,2055.02,2674.14,2675.49,2907.76,349.53,334.29,8.56,0000 0000 0000 0000 000000
2014-01-20 01:33:21,0.28,2.45,0.00,16.74,22.84,26.31,6.08,30.71,1027.85,2055.04,2673.52,2675.16,2907.29,350.10,334.71,8.56,0000 0000 0000 0000 000000
2014-01-20 01:34:21,0.29,2.45,0.00,16.73,22.84,26.30,6.35,30.88,1027.85,2055.07,2673.10,2674.74,2906.88,350.03,334.65,8.57,0000 0000 0000 0000 000000
2014-01-20 01:35:21,0.30,2.45,0.00,16.72,22.83,26.29,6.09,30.54,1027.85,2055.07,2672.49,2674.27,2906.33,349.35,334.10,8.57,0000 0000 0000 0000 000000
2014-01-20 01:36:21,0.33,2.45,0.00,16.72,22.83,26.29,6.24,30.54,1027.85,2055.05,2672.13,2674.03,2906.07,350.12,334.93,8.58,0000 0000 0000 0000 000000
2014-01-20 01:37:22,0.21,2.45,0.00,16.73,22.83,26.28,6.31,30.54,1027.85,2055.06,2671.53,2673.53,2905.53,350.45,335.06,8.59,0000 0000 0000 0000 000000
2014-01-20 01:38:22,0.31,2.46,0.00,16.73,22.82,26.29,6.33,30.75,1027.85,2055.09,2671.09,2673.19,2905.18,349.69,334.34,8.59,0000 0000 0000 0000 000000
2014-01-20 01:39:22,0.28,2.46,0.00,16.72,22.82,26.28,6.10,30.67,1027.85,2055.04,2670.46,2672.85,2904.75,349.29,333.96,8.60,0000 0000 0000 0000 000000
2014-01-20 01:40:23,0.24,2.46,0.00,16.73,22.82,26.28,6.42,30.75,1027.85,2055.04,2670.01,2672.33,2904.27,350.57,335.11,8.60,0000 0000 0000 0000 000000
2014-01-20 01:41:23,0.32,2.46,0.00,16.72,22.82,26.28,6.22,30.58,1027.85,2055.05,2669.43,2672.05,2904.01,349.69,334.41,8.61,0000 0000 0000 0000 000000
2014-01-20 01:42:23,0.27,2.46,0.00,16.73,22.82,26.27,6.18,30.67,1027.85,2055.04,2668.88,2671.57,2903.48,350.08,334.46,8.61,0000 0000 0000 0000 000000
2014-01-20 01:43:23,0.30,2.46,0.00,16.73,22.82,26.27,6.39,30.71,1027.85,2055.06,2668.33,2671.20,2903.17,350.57,335.18,8.62,0000 0000 0000 0000 000000
2014-01-20 01:44:24,0.29,2.47,0.00,16.73,22.82,26.30,6.30,30.92,1027.85,2055.10,2667.84,2670.94,2902.71,349.65,334.30,8.63,0000 0000 0000 0000 000000
2014-01-20 01:45:24,0.26,2.47,0.00,16.74,22.82,26.29,6.18,30.88,1027.85,2055.08,2667.31,2670.40,2902.27,350.13,334.74,8.63,0000 0000 0000 0000 000000
2014-01-20 01:46:24,0.30,2.47,0.00,16.73,22.82,26.27,6.48,30.92,1027.85,2055.05,2666.72,2670.09,2901.87,350.75,335.26,8.64,0000 0000 0000 0000 000000
2014-01-20 01:47:25,0.27,2.47,0.00,16.72,22.82,26.25,6.19,30.83,1027.85,2055.03,2666.26,2669.48,2901.33,350.51,335.13,8.64,0000 0000 0000 0000 000000
2014-01-20 01:48:25,0.30,2.47,0.00,16.72,22.82,26.23,6.38,30.92,1027.85,2055.02,2665.76,2669.17,2900.93,349.79,334.44,8.65,0000 0000 0000 0000 000000
2014-01-20 01:49:25,0.26,2.48,0.00,16.72,22.82,26.31,6.41,30.67,1027.85,2055.04,2665.28,2668.86,2900.37,351.07,335.67,8.66,0000 0000 0000 0000 000000
2014-01-20 01:50:25,0.32,2.48,0.00,16.72,22.82,26.30,6.37,30.75,1027.85,2055.08,2664.76,2668.34,2900.10,349.66,334.27,8.66,0000 0000 0000 0000 000000
2014-01-20 01:51:26,0.30,2.48,0.00,16.73,22.82,26.24,6.22,30.88,1027.85,2055.05,2664.27,2668.11,2899.56,349.86,334.33,8.67,0000 0000 0000 0000 000000
2014-01-20 01:52:26,0.23,2.48,0.00,16.73,22.82,26.25,6.42,30.54,1027.85,2055.04,2663.74,2667.70,2899.20,350.37,334.98,8.67,0000 0000 0000 0000 000000
2014-01-20 01:53:26,0.27,2.48,0.00,16.71,22.82,26.25,6.14,30.71,1027.84,2055.08,2663.24,2667.26,2898.88,349.62,334.28,8.68,0000 0000 0000 0000 000000
2014-01-20 01:54:26,0.30,2.48,0.00,16.71,22.82,26.27,6.32,30.96,1027.85,2055.07,2662.63,2667.01,2898.36,349.89,334.70,8.68,0000 0000 0000 0000 000000
2014-01-20 01:55:27,0.31,2.49,0.00,16.70,22.81,26.28,6.20,30.79,1027.85,2055.09,2662.22,2666.50,2898.11,349.16,334.26,8.69,0000 0000 0000 0000 000000
2014-01-20 01:56:27,0.29,2.49,0.00,16.69,22.81,26.22,6.36,30.75,1027.85,2055.13,2661.65,2666.18,2897.59,350.48,334.60,8.70,0000 0000 0000 0000 000000
2014-01-20 01:57:27,0.26,2.49,0.00,16.69,22.80,26.26,6.36,30.92,1027.84,2055.09,2661.21,2665.80,2897.20,349.85,334.54,8.70,0000 0000 0000 0000 000000
2014-01-20 01:58:28,0.26,2.49,0.00,16.69,22.80,26.28,6.32,30.63,1027.85,2055.09,2660.63,2665.31,2896.84,350.53,334.97,8.71,0000 0000 0000 0000 000000
2014-01-20 01:59:28,0.28,2.49,0.00,16.71,22.80,26.28,6.19,30.50,1027.85,2055.05,2660.18,2665.05,2896.33,349.92,334.86,8.71,0000 0000 0000 0000 000000
2014-01-20 02:00:28,0.27,2.49,0.00,16.71,22.80,26.27,6.26,30.79,1027.84,2055.08,2659.57,2664.55,2896.06,351.24,336.02,8.72,0000 0000 0000 0000 000000
2014-01-20 02:01:28,0.30,2.50,0.00,16.69,22.80,26.28,6.31,30.58,1027.83,2055.11,2659.18,2664.20,2895.52,350.39,335.05,8.73,0000 0000 0000 0000 000000
2014-01-20 02:02:29,0.28,2.50,0.00,16.69,22.80,26.31,6.17,30.42,1027.81,2055.14,2658.65,2663.94,2895.18,349.25,333.95,8.73,0000 0000 0000 0000 000000
2014-01-20 02:03:29,0.28,2.50,0.00,16.68,22.79,26.28,6.21,30.54,1027.77,2055.18,2658.20,2663.41,2894.71,349.64,334.31,8.74,0000 0000 0000 0000 000000
2014-01-20 02:04:29,0.33,2.50,0.00,16.69,22.79,26.27,6.32,30.58,1027.75,2055.19,2657.59,2663.13,2894.27,349.86,334.31,8.74,0000 0000 0000 0000 000000
2014-01-20 02:05:30,0.27,2.50,0.00,16.69,22.79,26.25,6.35,30.58,1027.77,2055.17,2657.11,2662.65,2893.93,350.29,334.93,8.75,0000 0000 0000 0000 000000
2014-01-20 02:06:30,0.30,2.50,0.00,16.68,22.79,26.25,6.17,30.50,1027.82,2055.16,2656.47,2662.24,2893.39,349.57,334.26,8.76,0000 0000 0000 0000 000000
2014-01-20 02:07:30,0.32,2.51,0.00,16.67,22.79,26.22,6.09,30.88,1027.77,2055.29,2656.00,2661.89,2893.06,349.98,334.66,8.76,0000 0000 0000 0000 000000
2014-01-20 02:08:31,0.34,2.51,0.00,16.67,22.79,26.21,6.37,31.00,1027.76,2055.27,2655.39,2661.35,2892.46,350.69,335.34,8.77,0000 0000 0000 0000 000000
2014-01-20 02:09:31,0.34,2.51,0.00,16.68,22.79,26.23,6.24,30.83,1027.73,2055.24,2654.80,2661.10,2892.16,349.95,334.62,8.77,0000 0000 0000 0000 000000
2014-01-20 02:10:31,0.26,2.51,0.00,16.68,22.79,26.24,6.15,30.88,1027.69,2055.32,2654.30,2660.61,2891.76,349.83,334.47,8.78,0000 0000 0000 0000 000000
2014-01-20 02:11:31,0.36,2.51,0.00,16.67,22.79,26.23,6.17,30.79,1027.63,2055.36,2653.76,2660.23,2891.27,349.60,334.43,8.78,0000 0000 0000 0000 000000
2014-01-20 02:12:32,0.31,2.52,0.00,16.67,22.79,26.22,6.33,30.79,1027.64,2055.27,2653.27,2659.89,2890.76,350.84,335.44,8.79,0000 0000 0000 0000 000000
2014-01-20 02:13:32,0.23,2.52,0.00,16.66,22.79,26.24,6.27,30.88,1027.67,2055.23,2652.67,2659.36,2890.28,349.74,334.29,8.80,0000 0000 0000 0000 000000
2014-01-20 02:14:32,0.33,2.52,0.00,16.65,22.79,26.22,6.37,31.00,1027.69,2055.39,2652.22,2659.11,2889.95,350.58,334.76,8.80,0000 0000 0000 0000 000000
2014-01-20 02:15:33,0.35,2.52,0.00,16.66,22.79,26.25,6.23,30.96,1027.58,2055.42,2651.66,2658.61,2889.40,349.94,334.56,8.81,0000 0000 0000 0000 000000
2014-01-20 02:16:33,0.35,2.52,0.00,16.65,22.79,26.24,6.23,30.79,1027.64,2055.50,2651.20,2658.22,2889.12,350.19,334.87,8.81,0000 0000 0000 0000 000000
2014-01-20 02:17:33,0.31,2.52,0.00,16.65,22.78,26.24,6.41,30.83,1027.61,2055.49,2650.60,2657.91,2888.61,351.05,335.64,8.82,0000 0000 0000 0000 000000
2014-01-20 02:18:33,0.29,2.53,0.00,16.63,22.78,26.22,6.25,30.83,1027.60,2055.40,2650.15,2657.36,2888.21,350.24,334.59,8.83,0000 0000 0000 0000 000000
2014-01-20 02:19:34,0.28,2.53,0.00,16.62,22.77,26.23,6.45,30.92,1027.52,2055.40,2649.52,2657.09,2887.68,350.28,334.90,8.83,0000 0000 0000 0000 000000
2014-01-20 02:20:34,0.25,2.53,0.00,16.64,22.77,26.23,6.40,30.83,1027.50,2055.35,2649.11,2656.54,2887.25,349.97,334.59,8.84,0000 0000 0000 0000 000000
2014-01-20 02:21:34,0.31,2.53,0.00,16.63,22.77,26.22,6.36,30.88,1027.44,2055.39,2648.48,2656.19,2886.86,350.04,334.65,8.84,0000 0000 0000 0000 000000
2014-01-20 02:22:34,0.25,2.53,0.00,16.63,22.77,26.22,6.36,30.67,1027.44,2055.29,2648.08,2655.88,2886.33,350.61,335.20,8.85,0000 0000 0000 0000 000000
2014-01-20 02:23:35,0.26,2.54,0.00,16.62,22.77,26.25,6.12,30.71,1027.44,2055.28,2647.45,2655.36,2886.01,349.75,334.39,8.85,0000 0000 0000 0000 000000
2014-01-20 02:24:35,0.30,2.54,0.00,16.61,22.77,26.26,6.17,30.71,1027.45,2055.30,2647.06,2655.08,2885.45,349.25,333.91,8.86,0000 0000 0000 0000 000000
2014-01-20 02:25:35,0.28,2.54,0.00,16.61,22.77,26.23,6.42,30.96,1027.41,2055.31,2646.45,2654.54,2885.13,350.47,335.07,8.87,0000 0000 0000 0000 000000
2014-01-20 02:26:35,0.31,2.54,0.00,16.61,22.77,26.20,6.21,30.83,1027.43,2055.28,2645.99,2654.19,2884.59,349.62,334.26,8.87,0000 0000 0000 0000 000000
2014-01-20 02:27:36,0.27,2.54,0.00,16.62,22.77,26.17,6.12,30.67,1027.42,2055.32,2645.39,2653.92,2884.21,349.14,333.79,8.88,0000 0000 0000 0000 000000
2014-01-20 02:28:36,0.31,2.54,0.00,16.62,22.77,26.16,6.43,30.92,1027.41,2055.30,2644.94,2653.39,2883.84,350.88,335.46,8.88,0000 0000 0000 0000 000000
2014-01-20 02:29:36,0.30,2.55,0.00,16.61,22.77,26.16,6.47,30.92,1027.43,2055.34,2644.36,2653.13,2883.34,350.99,335.72,8.89,0000 0000 0000 0000 000000
2014-01-20 02:30:36,0.28,2.55,0.00,16.59,22.77,26.17,6.47,30.92,1027.44,2055.42,2644.00,2652.71,2883.07,350.39,334.88,8.90,0000 0000 0000 0000 000000
2014-01-20 02:31:37,0.29,2.55,0.00,16.59,22.77,26.19,6.37,30.92,1027.46,2055.30,2643.42,2652.27,2882.51,350.70,335.59,8.90,0000 0000 0000 0000 000000
2014-01-20 02:32:37,0.22,2.55,0.00,16.59,22.77,26.18,6.40,30.83,1027.47,2055.26,2642.94,2651.97,2882.15,350.22,335.43,8.91,0000 0000 0000 0000 000000
2014-01-20 02:33:37,0.24,2.55,0.00,16.59,22.77,26.18,6.48,30.79,1027.45,2055.18,2642.36,2651.42,2881.68,350.04,334.49,8.91,0000 0000 0000 0000 000000
2014-01-20 02:34:38,0.26,2.55,0.00,16.59,22.76,26.21,6.07,30.92,1027.39,2055.23,2642.00,2651.14,2881.25,350.75,335.36,8.92,0000 0000 0000 0000 000000
2014-01-20 02:35:38,0.26,2.56,0.00,16.59,22.76,26.18,6.15,31.13,1027.39,2055.26,2641.43,2650.75,2880.89,349.93,334.72,8.93,0000 0000 0000 0000 000000
2014-01-20 02:36:38,0.35,2.56,0.00,16.59,22.75,26.21,6.20,31.04,1027.40,2055.33,2640.95,2650.28,2880.36,350.04,334.21,8.93,0000 0000 0000 0000 000000
2014-01-20 02:37:38,0.37,2.56,0.00,16.58,22.75,26.23,6.23,31.04,1027.38,2055.43,2640.37,2650.08,2880.12,350.67,334.95,8.94,0000 0000 0000 0000 000000